| time (UTC) | temp C | wind direction | speed KPH | gust KPH | rain 1hr cm | rain 24hr cm | rain mn cm | humidity % | barometer mb |
| 20260506044540 | 8 | 27 | 1.6 | 14.5 | 0.00 | 0.00 | 0.00 | 77 | 1014.5 |
| 20260506043028 | 8 | 0 | 3.2 | 19.3 | 0.00 | 0.00 | 0.00 | 77 | 1014.4 |
| 20260506041540 | 8 | 0 | 1.6 | 16.1 | 0.00 | 0.00 | 0.00 | 76 | 1014.7 |
| 20260506040031 | 8 | 309 | 4.8 | 16.1 | 0.00 | 0.00 | 0.00 | 74 | 1014.9 |
| 20260506034530 | 9 | 62 | 3.2 | 14.5 | 0.00 | 0.08 | 0.00 | 75 | 1014.6 |
| 20260506033029 | 9 | 293 | 1.6 | 12.9 | 0.00 | 0.08 | 0.00 | 74 | 1014.7 |
| 20260506031534 | 9 | 17 | 1.6 | 8.0 | 0.00 | 0.08 | 0.00 | 73 | 1014.2 |
| 20260506030030 | 9 | 55 | 3.2 | 14.5 | 0.00 | 0.08 | 0.00 | 70 | 1013.6 |
| 20260506024533 | 9 | 35 | 1.6 | 8.0 | 0.00 | 0.08 | 0.00 | 72 | 1013.1 |
| 20260506023033 | 9 | 13 | 3.2 | 11.3 | 0.00 | 0.08 | 0.00 | 72 | 1012.8 |
| 20260506021529 | 9 | 63 | 1.6 | 14.5 | 0.00 | 0.08 | 0.00 | 74 | 1012.2 |
| 20260506020030 | 9 | 23 | 3.2 | 14.5 | 0.00 | 0.08 | 0.00 | 73 | 1012.7 |
| 20260506014529 | 9 | 79 | 3.2 | 14.5 | 0.00 | 0.08 | 0.00 | 72 | 1012.5 |
| 20260506013029 | 10 | 52 | 4.8 | 20.9 | 0.00 | 0.08 | 0.00 | 71 | 1011.8 |
| 20260506011530 | 10 | 56 | 4.8 | 22.5 | 0.00 | 0.08 | 0.00 | 70 | 1011.9 |
| 20260506010031 | 10 | 24 | 6.4 | 19.3 | 0.00 | 0.08 | 0.00 | 70 | 1011.6 |
| 20260506004537 | 10 | 355 | 8.0 | 24.1 | 0.00 | 0.08 | 0.00 | 70 | 1011.2 |
| 20260506003030 | 10 | 309 | 8.0 | 24.1 | 0.00 | 0.08 | 0.00 | 72 | 1010.9 |
| 20260506001529 | 10 | 58 | 4.8 | 27.4 | 0.00 | 0.08 | 0.00 | 73 | 1011.1 |
| 20260506000033 | 10 | 69 | 6.4 | 17.7 | 0.00 | 0.08 | 0.00 | 73 | 1011.1 |
| 20260505234601 | 10 | 17 | 6.4 | 20.9 | 0.00 | 0.08 | 0.00 | 72 | 1011.2 |
| 20260505233032 | 10 | 74 | 6.4 | 22.5 | 0.00 | 0.08 | 0.00 | 72 | 1011.0 |
| 20260505231531 | 10 | 9 | 6.4 | 17.7 | 0.00 | 0.08 | 0.00 | 74 | 1010.9 |
| 20260505230029 | 10 | 53 | 6.4 | 24.1 | 0.00 | 0.08 | 0.00 | 73 | 1010.7 |
| 20260505224533 | 10 | 83 | 8.0 | 22.5 | 0.00 | 0.08 | 0.00 | 72 | 1010.5 |
| 20260505223030 | 10 | 59 | 6.4 | 24.1 | 0.00 | 0.08 | 0.00 | 72 | 1010.4 |
| 20260505221530 | 10 | 111 | 6.4 | 33.8 | 0.00 | 0.08 | 0.00 | 69 | 1010.1 |
| 20260505220032 | 10 | 77 | 11.3 | 37.0 | 0.00 | 0.08 | 0.00 | 68 | 1010.1 |
| 20260505214537 | 11 | 24 | 11.3 | 30.6 | 0.00 | 0.08 | 0.00 | 68 | 1010.0 |
| 20260505213028 | 11 | 68 | 3.2 | 20.9 | 0.00 | 0.08 | 0.00 | 70 | 1010.1 |
| 20260505211528 | 11 | 305 | 12.9 | 32.2 | 0.00 | 0.08 | 0.00 | 69 | 1010.1 |
| 20260505210030 | 11 | 51 | 6.4 | 29.0 | 0.00 | 0.08 | 0.00 | 70 | 1010.2 |
| 20260505204530 | 11 | 360 | 8.0 | 22.5 | 0.00 | 0.08 | 0.00 | 69 | 1010.1 |
| 20260505203029 | 11 | 44 | 9.7 | 24.1 | 0.00 | 0.08 | 0.00 | 67 | 1010.2 |
| 20260505201531 | 11 | 98 | 8.0 | 22.5 | 0.00 | 0.08 | 0.00 | 67 | 1010.0 |
| 20260505200034 | 11 | 53 | 8.0 | 24.1 | 0.00 | 0.08 | 0.00 | 67 | 1009.9 |
| 20260505194528 | 11 | 56 | 3.2 | 27.4 | 0.00 | 0.08 | 0.00 | 69 | 1010.1 |
| 20260505193031 | 11 | 69 | 9.7 | 30.6 | 0.00 | 0.08 | 0.00 | 67 | 1009.6 |
| 20260505191529 | 11 | 24 | 4.8 | 24.1 | 0.00 | 0.08 | 0.00 | 69 | 1009.6 |
| 20260505190028 | 11 | 42 | 6.4 | 29.0 | 0.00 | 0.08 | 0.00 | 67 | 1009.4 |
| 20260505184529 | 11 | 60 | 8.0 | 24.1 | 0.00 | 0.08 | 0.00 | 67 | 1009.4 |
| 20260505183041 | 11 | 96 | 9.7 | 29.0 | 0.00 | 0.08 | 0.00 | 68 | 1009.2 |
| 20260505181529 | 12 | 53 | 9.7 | 32.2 | 0.00 | 0.08 | 0.00 | 67 | 1008.8 |
| 20260505180029 | 12 | 321 | 6.4 | 24.1 | 0.00 | 0.08 | 0.00 | 67 | 1009.0 |
| 20260505174528 | 12 | 355 | 6.4 | 20.9 | 0.00 | 0.08 | 0.00 | 68 | 1008.8 |
| 20260505173034 | 12 | 50 | 6.4 | 27.4 | 0.00 | 0.08 | 0.00 | 69 | 1008.6 |
| 20260505171533 | 12 | 63 | 3.2 | 24.1 | 0.00 | 0.08 | 0.00 | 71 | 1008.5 |
| 20260505170033 | 12 | 331 | 6.4 | 20.9 | 0.00 | 0.08 | 0.00 | 73 | 1008.2 |
| 20260505164529 | 12 | 171 | 6.4 | 19.3 | 0.00 | 0.08 | 0.00 | 76 | 1007.9 |
| 20260505163027 | 12 | 24 | 6.4 | 29.0 | 0.00 | 0.08 | 0.00 | 78 | 1007.8 |
| 20260505161530 | 11 | 40 | 8.0 | 25.7 | 0.00 | 0.08 | 0.00 | 79 | 1007.5 |
| 20260505153030 | 12 | 30 | 6.4 | 22.5 | 0.00 | 0.08 | 0.00 | 81 | 1007.5 |
| 20260505151529 | 12 | 77 | 4.8 | 17.7 | 0.00 | 0.08 | 0.00 | 80 | 1007.1 |
| 20260505124528 | 15 | 13 | 6.4 | 19.3 | 0.00 | 0.08 | 0.00 | 79 | 1005.3 |
| 20260505123028 | 16 | 290 | 6.4 | 19.3 | 0.00 | 0.08 | 0.00 | 78 | 1005.4 |
| 20260505121529 | 16 | 65 | 6.4 | 20.9 | 0.00 | 0.08 | 0.00 | 78 | 1004.8 |
| 20260505120030 | 17 | 101 | 0.0 | 11.3 | 0.00 | 0.08 | 0.00 | 81 | 1004.6 |
| 20260505114530 | 17 | 26 | 3.2 | 14.5 | 0.00 | 0.08 | 0.00 | 81 | 1004.4 |
| 20260505113032 | 16 | 88 | 8.0 | 20.9 | 0.00 | 0.08 | 0.00 | 81 | 1004.2 |
| 20260505111529 | 16 | 61 | 3.2 | 14.5 | 0.00 | 0.08 | 0.00 | 81 | 1004.2 |
| 20260505101529 | 18 | 313 | 3.2 | 17.7 | 0.00 | 0.08 | 0.00 | 76 | 1003.4 |
| 20260505100030 | 18 | 146 | 14.5 | 27.4 | 0.00 | 0.08 | 0.00 | 76 | 1002.5 |
| 20260505094531 | 17 | 128 | 14.5 | 22.5 | 0.00 | 0.08 | 0.00 | 78 | 1002.5 |
| 20260505093030 | 17 | 130 | 12.9 | 22.5 | 0.00 | 0.08 | 0.00 | 77 | 1002.8 |
| 20260505091530 | 17 | 135 | 8.0 | 19.3 | 0.00 | 0.08 | 0.00 | 77 | 1002.9 |
| 20260505090031 | 17 | 124 | 8.0 | 19.3 | 0.00 | 0.08 | 0.00 | 75 | 1003.0 |
| 20260505084537 | 18 | 111 | 6.4 | 17.7 | 0.00 | 0.08 | 0.00 | 73 | 1003.0 |
| 20260505083030 | 17 | 104 | 8.0 | 16.1 | 0.00 | 0.08 | 0.00 | 74 | 1002.9 |
| 20260505081529 | 17 | 134 | 6.4 | 17.7 | 0.00 | 0.08 | 0.00 | 75 | 1002.6 |
| 20260505080028 | 17 | 135 | 8.0 | 16.1 | 0.00 | 0.08 | 0.00 | 75 | 1002.7 |
| 20260505074531 | 17 | 132 | 8.0 | 16.1 | 0.00 | 0.08 | 0.00 | 75 | 1002.7 |
| 20260505073038 | 17 | 119 | 8.0 | 20.9 | 0.00 | 0.08 | 0.00 | 75 | 1002.7 |
| 20260505071530 | 17 | 107 | 8.0 | 20.9 | 0.00 | 0.08 | 0.00 | 75 | 1003.3 |
| 20260505070038 | 17 | 112 | 3.2 | 19.3 | 0.00 | 0.08 | 0.00 | 76 | 1003.5 |
| 20260505064533 | 17 | 131 | 6.4 | 16.1 | 0.00 | 0.08 | 0.00 | 74 | 1003.8 |
| 20260505063030 | 18 | 120 | 9.7 | 17.7 | 0.00 | 0.08 | 0.00 | 71 | 1003.8 |
| 20260505061536 | 19 | 134 | 4.8 | 19.3 | 0.00 | 0.08 | 0.00 | 67 | 1004.2 |